Location: Claremont
(33.9858°S, 18.4575°E)
Time: 11:27:37
(UTC+00:00)

CZ-2C R/B - Pass Details

Date: 03 March 2021
Orbit: 640 x 704 km, 98.3° (Epoch: 09 April)

Event Time Altitude Azimuth Distance (km) Brightness Sun altitude
Exits shadow 18:48:45 13° 6° (N) 1,922 5.8 -18.6°
Maximum altitude 18:52:52 72° 283° (WNW) 705 3.9 -19.4°
Drops below altitude 10° 18:57:27 10° 197° (SSW) 2,093 6.8 -20.3°
Sets 18:59:40 0° 195° (SSW) 3,004 7.6 -20.7°
